Weather History for Adak, AK

Change the Weather History Date:

Friday, November 2, 2012

  Actual Average Record
Temperature  
Mean Temperature 36 °F -  
Max Temperature 39 °F 43 °F 51 °F (2011)
Min Temperature 33 °F 35 °F 28 °F (2007)
Degree Days  
Heating Degree Days 29    
Moisture  
Dew Point 31 °F    
Average Humidity 80    
Maximum Humidity 87    
Minimum Humidity 61    
Precipitation  
Precipitation 0.00 in - - ()
Sea Level Pressure  
Sea Level Pressure 30.19 in    
Wind  
Wind Speed 19 mph (North)    
Max Wind Speed 25 mph    
Max Gust Speed 33 mph    
Visibility 10 miles    
Events      
Averages and records for this station are not official NWS values.
T = Trace of Precipitation, MM = Missing Value Source: NWS Daily Summary

Daily Weather History Graph

Daily Weather History Graph

Search for Another Location

Airport:

Trip Planner

Search our weather history database for the weather conditions in past years. The results will help you decide how hot, cold, wet, or windy it might be!

Date:

Astronomy

Nov. 02, 2012 Rise Set
Actual Time 9:44 AM HADT 7:15 PM HADT
Civil Twilight 9:08 AM HADT 7:50 PM HADT
Nautical Twilight 8:28 AM HADT 8:30 PM HADT
Astronomical Twilight 7:49 AM HADT 9:09 PM HADT
Moon 10:00 PM HADT (11/2) 1:31 PM HADT (11/2)
Length of Visible Light 10h 42m
Length of Day
9h 30m
Waning Gibbous, 86% of the Moon is Illuminated
Nov 2
Waning Gibbous
Nov 6
Last Quarter
Nov 13
New
Nov 20
First Quarter
Nov 28
Full

Hourly Weather History & Observations

Time (HADT) Temp. Windchill Dew Point Humidity Pressure Visibility Wind Dir Wind Speed Gust Speed Precip Events Conditions
12:16 AM 37.4 °F 27.2 °F 30.2 °F 75% 30.26 in 10.0 mi North 19.6 mph 27.6 mph N/A   Overcast
12:36 AM 37.4 °F 28.2 °F 30.2 °F 75% 30.26 in 10.0 mi NNE 16.1 mph 21.9 mph N/A   Overcast
12:56 AM 37.4 °F 26.4 °F 30.2 °F 75% 30.26 in 10.0 mi NNE 23.0 mph 33.4 mph N/A   Overcast
1:16 AM 35.6 °F 24.8 °F 30.2 °F 81% 30.26 in 10.0 mi North 19.6 mph 24.2 mph N/A   Overcast
1:36 AM 37.4 °F 26.9 °F 28.4 °F 70% 30.25 in 10.0 mi North 20.7 mph - N/A   Overcast
1:56 AM 35.6 °F 25.9 °F 30.2 °F 81% 30.25 in 10.0 mi NNE 16.1 mph 24.2 mph N/A   Overcast
2:16 AM 35.6 °F 24.8 °F 30.2 °F 81% 30.25 in 10.0 mi North 19.6 mph 29.9 mph N/A   Overcast
2:36 AM 37.4 °F 26.9 °F 28.4 °F 70% 30.25 in 10.0 mi North 20.7 mph 28.8 mph N/A   Overcast
2:56 AM 37.4 °F 26.6 °F 28.4 °F 70% 30.25 in 10.0 mi North 21.9 mph 26.5 mph N/A   Overcast
3:16 AM 37.4 °F 25.9 °F 30.2 °F 75% 30.25 in 9.0 mi NNE 25.3 mph 31.1 mph N/A   Overcast
3:36 AM 35.6 °F 25.2 °F 30.2 °F 81% 30.25 in 6.0 mi North 18.4 mph 31.1 mph N/A   Overcast
3:56 AM 35.6 °F 25.9 °F 32.0 °F 87% 30.24 in 10.0 mi NNE 16.1 mph 25.3 mph N/A   Overcast
4:16 AM 37.4 °F 27.5 °F 28.4 °F 70% 30.23 in 10.0 mi North 18.4 mph 27.6 mph N/A   Overcast
4:36 AM 37.4 °F 27.5 °F 26.6 °F 65% 30.23 in 10.0 mi North 18.4 mph 27.6 mph N/A   Overcast
4:56 AM 35.6 °F 26.2 °F 28.4 °F 75% 30.23 in 10.0 mi NNE 15.0 mph - N/A   Overcast
5:16 AM 37.4 °F 26.4 °F 30.2 °F 75% 30.22 in 10.0 mi North 23.0 mph - N/A   Overcast
5:36 AM 35.6 °F 27.1 °F 30.2 °F 81% 30.23 in 10.0 mi North 12.7 mph 29.9 mph N/A   Overcast
5:56 AM 37.4 °F 26.9 °F 32.0 °F 81% 30.22 in 10.0 mi North 20.7 mph 26.5 mph N/A   Overcast
6:16 AM 35.6 °F 25.2 °F 30.2 °F 81% 30.22 in 10.0 mi North 18.4 mph 25.3 mph N/A   Overcast
6:36 AM 35.6 °F 24.2 °F 30.2 °F 81% 30.22 in 3.0 mi NNE 21.9 mph 33.4 mph N/A   Overcast
6:56 AM 35.6 °F 24.2 °F 30.2 °F 81% 30.22 in 10.0 mi North 21.9 mph 26.5 mph N/A   Overcast
7:16 AM 35.6 °F 27.1 °F 32.0 °F 87% 30.21 in 10.0 mi North 12.7 mph 24.2 mph N/A   Overcast
7:36 AM 35.6 °F 24.2 °F 30.2 °F 81% 30.21 in 10.0 mi North 21.9 mph 33.4 mph N/A   Overcast
7:56 AM 35.6 °F 27.1 °F 32.0 °F 87% 30.21 in 10.0 mi North 12.7 mph 19.6 mph N/A   Overcast
8:16 AM 35.6 °F 25.9 °F 30.2 °F 81% 30.21 in 10.0 mi North 16.1 mph - N/A   Overcast
8:36 AM 35.6 °F 24.8 °F 30.2 °F 81% 30.21 in 10.0 mi North 19.6 mph 26.5 mph N/A   Overcast
8:56 AM 35.6 °F 25.9 °F 32.0 °F 87% 30.21 in 10.0 mi NNE 16.1 mph 21.9 mph N/A   Mostly Cloudy
9:16 AM 35.6 °F 25.2 °F 30.2 °F 81% 30.21 in 10.0 mi NNE 18.4 mph 27.6 mph N/A   Overcast
9:36 AM 35.6 °F 25.9 °F 30.2 °F 81% 30.21 in 10.0 mi North 16.1 mph 24.2 mph N/A   Overcast
9:56 AM 35.6 °F 25.9 °F 30.2 °F 81% 30.22 in 10.0 mi NNW 16.1 mph 25.3 mph N/A   Mostly Cloudy
10:16 AM 35.6 °F 26.2 °F 30.2 °F 81% 30.21 in 10.0 mi North 15.0 mph 26.5 mph N/A   Overcast
10:36 AM 37.4 °F 27.5 °F 30.2 °F 75% 30.21 in 10.0 mi NNE 18.4 mph 28.8 mph N/A   Overcast
10:56 AM 35.6 °F 25.2 °F 30.2 °F 81% 30.22 in 10.0 mi North 18.4 mph 24.2 mph N/A   Overcast
11:16 AM 37.4 °F 28.2 °F 30.2 °F 75% 30.21 in 10.0 mi North 16.1 mph 23.0 mph N/A   Overcast
11:36 AM 35.6 °F 23.7 °F 30.2 °F 81% 30.21 in 10.0 mi North 24.2 mph 33.4 mph N/A   Overcast
11:56 AM 37.4 °F 28.2 °F 30.2 °F 75% 30.21 in 10.0 mi North 16.1 mph 23.0 mph N/A   Overcast
12:16 PM 37.4 °F 28.5 °F 32.0 °F 81% 30.21 in 10.0 mi NNE 15.0 mph - N/A   Overcast
12:36 PM 35.6 °F 24.2 °F 32.0 °F 87% 30.21 in 10.0 mi North 21.9 mph - N/A   Mostly Cloudy
12:56 PM 37.4 °F 26.6 °F 32.0 °F 81% 30.20 in 10.0 mi North 21.9 mph 27.6 mph N/A   Overcast
1:16 PM 37.4 °F 27.5 °F 33.8 °F 87% 30.20 in 10.0 mi North 18.4 mph 27.6 mph N/A   Overcast
1:36 PM 37.4 °F 27.5 °F 33.8 °F 87% 30.19 in 10.0 mi NNE 18.4 mph 25.3 mph N/A   Overcast
1:56 PM 37.4 °F 27.2 °F 32.0 °F 81% 30.18 in 10.0 mi North 19.6 mph 27.6 mph N/A   Overcast
2:16 PM 37.4 °F 26.9 °F 30.2 °F 75% 30.17 in 10.0 mi North 20.7 mph 26.5 mph N/A   Mostly Cloudy
2:36 PM 37.4 °F 26.9 °F 32.0 °F 81% 30.17 in 10.0 mi North 20.7 mph - N/A   Mostly Cloudy
2:56 PM 37.4 °F 27.8 °F 33.8 °F 87% 30.17 in 10.0 mi NNW 17.3 mph 21.9 mph N/A   Overcast
3:16 PM 37.4 °F 28.5 °F 30.2 °F 75% 30.16 in 10.0 mi North 15.0 mph 24.2 mph N/A   Overcast
3:36 PM 37.4 °F 26.6 °F 32.0 °F 81% 30.15 in 8.0 mi North 21.9 mph - N/A   Overcast
3:56 PM 39.2 °F 30.5 °F 33.8 °F 81% 30.15 in 10.0 mi North 16.1 mph 25.3 mph N/A   Overcast
4:16 PM 37.4 °F 27.5 °F 33.8 °F 87% 30.15 in 8.0 mi North 18.4 mph 27.6 mph N/A   Overcast
4:36 PM 37.4 °F 26.4 °F 33.8 °F 87% 30.14 in 10.0 mi North 23.0 mph 29.9 mph N/A   Overcast
4:56 PM 39.2 °F 30.2 °F 30.2 °F 70% 30.14 in 10.0 mi North 17.3 mph 26.5 mph N/A   Overcast
5:16 PM 39.2 °F 29.3 °F 30.2 °F 70% 30.14 in 10.0 mi NNW 20.7 mph 24.2 mph N/A   Overcast
5:36 PM 37.4 °F 26.9 °F 32.0 °F 81% 30.14 in 10.0 mi North 20.7 mph 25.3 mph N/A   Overcast
5:56 PM 37.4 °F 27.5 °F 32.0 °F 81% 30.14 in 10.0 mi NNW 18.4 mph 24.2 mph N/A   Overcast
6:16 PM 37.4 °F 26.9 °F 30.2 °F 75% 30.14 in 10.0 mi NNW 20.7 mph 25.3 mph N/A   Overcast
6:36 PM 37.4 °F 27.8 °F 33.8 °F 87% 30.14 in 10.0 mi North 17.3 mph 23.0 mph N/A   Overcast
6:56 PM 35.6 °F 25.5 °F 32.0 °F 87% 30.14 in 4.0 mi NNW 17.3 mph 21.9 mph N/A   Overcast
7:16 PM 35.6 °F 25.9 °F 30.2 °F 81% 30.13 in 10.0 mi NNW 16.1 mph 21.9 mph N/A   Mostly Cloudy
7:36 PM 37.4 °F 29.3 °F 30.2 °F 75% 30.12 in 10.0 mi NNW 12.7 mph - N/A   Mostly Cloudy
7:56 PM 37.4 °F 26.9 °F 30.2 °F 75% 30.13 in 10.0 mi North 20.7 mph 26.5 mph N/A   Mostly Cloudy
8:16 PM 37.4 °F 28.5 °F 30.2 °F 75% 30.13 in 10.0 mi NNW 15.0 mph 24.2 mph N/A   Overcast
8:36 PM 37.4 °F 28.9 °F 30.2 °F 75% 30.12 in 10.0 mi North 13.8 mph 19.6 mph N/A   Overcast
8:56 PM 35.6 °F 25.2 °F 30.2 °F 81% 30.12 in 10.0 mi North 18.4 mph 24.2 mph N/A   Mostly Cloudy
9:16 PM 37.4 °F 28.2 °F 30.2 °F 75% 30.12 in 10.0 mi NNW 16.1 mph 20.7 mph N/A   Mostly Cloudy
9:36 PM 37.4 °F 27.2 °F 32.0 °F 81% 30.12 in 8.0 mi NNW 19.6 mph 26.5 mph N/A   Mostly Cloudy
9:56 PM 35.6 °F 26.2 °F 32.0 °F 87% 30.12 in 10.0 mi NNW 15.0 mph - N/A   Mostly Cloudy
10:16 PM 37.4 °F 27.5 °F 33.8 °F 87% 30.12 in 9.0 mi North 18.4 mph 27.6 mph N/A   Overcast
10:36 PM 35.6 °F 28.0 °F 32.0 °F 87% 30.12 in 10.0 mi NNW 10.4 mph 21.9 mph N/A   Overcast
10:56 PM 35.6 °F 26.6 °F 32.0 °F 87% 30.12 in 10.0 mi NNW 13.8 mph 24.2 mph N/A   Overcast
11:16 PM 37.4 °F 28.9 °F 32.0 °F 81% 30.11 in 10.0 mi NNW 13.8 mph 17.3 mph N/A   Overcast
11:36 PM 37.4 °F 27.5 °F 32.0 °F 81% 30.11 in 10.0 mi North 18.4 mph 26.5 mph N/A   Overcast
11:56 PM 37.4 °F 28.5 °F 32.0 °F 81% 30.10 in 10.0 mi NNW 15.0 mph - N/A   Mostly Cloudy